TimeEST,TemperatureF,Dew PointF,Humidity,Sea Level PressureIn,VisibilityMPH,Wind Direction,Wind SpeedMPH,Gust SpeedMPH,PrecipitationIn,Events,Conditions,WindDirDegrees,DateUTC
12:15 AM,30.2,26.6,86,30.11,10.0,Calm,Calm,-,N/A,,Clear,0,2012-11-26 05:15:00
12:35 AM,30.2,26.6,86,30.11,10.0,Calm,Calm,-,N/A,,Clear,0,2012-11-26 05:35:00
12:55 AM,30.2,26.6,86,30.11,10.0,Calm,Calm,-,N/A,,Clear,0,2012-11-26 05:55:00
1:15 AM,30.2,26.6,86,30.11,10.0,Calm,Calm,-,N/A,,Clear,0,2012-11-26 06:15:00
1:35 AM,28.4,23.0,80,30.11,10.0,Calm,Calm,-,N/A,,Clear,0,2012-11-26 06:35:00
1:55 AM,28.4,24.8,86,30.11,10.0,Calm,Calm,-,N/A,,Clear,0,2012-11-26 06:55:00
2:15 AM,28.4,23.0,80,30.11,10.0,Calm,Calm,-,N/A,,Clear,0,2012-11-26 07:15:00
2:35 AM,28.4,23.0,80,30.11,10.0,Calm,Calm,-,N/A,,Clear,0,2012-11-26 07:35:00
2:55 AM,28.4,23.0,80,30.11,10.0,Calm,Calm,-,N/A,,Clear,0,2012-11-26 07:55:00
3:15 AM,28.4,24.8,86,30.12,10.0,Calm,Calm,-,N/A,,Clear,0,2012-11-26 08:15:00
3:35 AM,26.6,23.0,86,30.12,10.0,Calm,Calm,-,N/A,,Clear,0,2012-11-26 08:35:00
3:55 AM,26.6,23.0,86,30.11,10.0,Calm,Calm,-,N/A,,Clear,0,2012-11-26 08:55:00
4:15 AM,28.4,23.0,80,30.12,10.0,Calm,Calm,-,N/A,,Clear,0,2012-11-26 09:15:00
4:35 AM,26.6,23.0,86,30.12,10.0,Calm,Calm,-,N/A,,Clear,0,2012-11-26 09:35:00
4:55 AM,26.6,23.0,86,30.12,10.0,Calm,Calm,-,N/A,,Clear,0,2012-11-26 09:55:00
5:15 AM,28.4,24.8,86,30.13,10.0,Calm,Calm,-,N/A,,Clear,0,2012-11-26 10:15:00
5:35 AM,28.4,24.8,86,30.13,10.0,Calm,Calm,-,N/A,,Clear,0,2012-11-26 10:35:00
5:55 AM,26.6,23.0,86,30.14,10.0,Calm,Calm,-,N/A,,Clear,0,2012-11-26 10:55:00
6:15 AM,26.6,23.0,86,30.15,10.0,Calm,Calm,-,N/A,,Clear,0,2012-11-26 11:15:00
6:35 AM,26.6,24.8,93,30.16,10.0,Calm,Calm,-,N/A,,Clear,0,2012-11-26 11:35:00
6:55 AM,26.6,24.8,93,30.16,10.0,Calm,Calm,-,N/A,,Clear,0,2012-11-26 11:55:00
7:15 AM,26.6,24.8,93,30.18,10.0,Calm,Calm,-,N/A,,Clear,0,2012-11-26 12:15:00
7:35 AM,26.6,23.0,86,30.19,10.0,Calm,Calm,-,N/A,,Clear,0,2012-11-26 12:35:00
7:55 AM,28.4,26.6,93,30.19,10.0,Calm,Calm,-,N/A,,Clear,0,2012-11-26 12:55:00
8:15 AM,30.2,26.6,86,30.20,10.0,Calm,Calm,-,N/A,,Clear,0,2012-11-26 13:15:00
8:35 AM,32.0,30.2,93,30.20,10.0,Calm,Calm,-,N/A,,Clear,0,2012-11-26 13:35:00
8:55 AM,33.8,30.2,87,30.21,10.0,Calm,Calm,-,N/A,,Clear,0,2012-11-26 13:55:00
9:15 AM,37.4,32.0,81,30.21,10.0,Calm,Calm,-,N/A,,Clear,0,2012-11-26 14:15:00
9:35 AM,41.0,32.0,70,30.21,10.0,Calm,Calm,-,N/A,,Clear,0,2012-11-26 14:35:00
9:55 AM,44.6,30.2,57,30.22,10.0,Calm,Calm,-,N/A,,Clear,0,2012-11-26 14:55:00
10:15 AM,46.4,28.4,50,30.22,10.0,Calm,Calm,-,N/A,,Clear,0,2012-11-26 15:15:00
10:35 AM,48.2,28.4,46,30.22,10.0,Calm,Calm,-,N/A,,Clear,0,2012-11-26 15:35:00
10:55 AM,51.8,23.0,33,30.22,10.0,Calm,Calm,-,N/A,,Clear,0,2012-11-26 15:55:00
11:15 AM,53.6,26.6,35,30.22,10.0,Calm,Calm,-,N/A,,Clear,0,2012-11-26 16:15:00
11:35 AM,55.4,24.8,31,30.21,10.0,Calm,Calm,-,N/A,,Clear,0,2012-11-26 16:35:00
11:55 AM,59.0,21.2,23,30.21,10.0,Calm,Calm,-,N/A,,Clear,0,2012-11-26 16:55:00
12:15 PM,60.8,19.4,20,30.19,10.0,NE,3.5,-,N/A,,Clear,50,2012-11-26 17:15:00
12:35 PM,60.8,19.4,20,30.19,10.0,ENE,3.5,-,N/A,,Clear,70,2012-11-26 17:35:00
12:55 PM,62.6,19.4,19,30.18,10.0,East,4.6,-,N/A,,Clear,100,2012-11-26 17:55:00
1:15 PM,62.6,19.4,19,30.17,10.0,ENE,4.6,-,N/A,,Clear,60,2012-11-26 18:15:00
1:35 PM,62.6,21.2,20,30.16,10.0,Calm,Calm,-,N/A,,Clear,0,2012-11-26 18:35:00
1:55 PM,62.6,21.2,20,30.16,10.0,Calm,Calm,-,N/A,,Clear,0,2012-11-26 18:55:00
2:15 PM,62.6,21.2,20,30.16,10.0,Calm,Calm,-,N/A,,Clear,0,2012-11-26 19:15:00
2:35 PM,64.4,21.2,19,30.15,10.0,SSE,5.8,-,N/A,,Clear,160,2012-11-26 19:35:00
2:55 PM,62.6,21.2,20,30.15,10.0,Calm,Calm,-,N/A,,Clear,0,2012-11-26 19:55:00
3:15 PM,64.4,21.2,19,30.15,10.0,Calm,Calm,-,N/A,,Clear,0,2012-11-26 20:15:00
3:35 PM,64.4,21.2,19,30.15,10.0,SSW,4.6,-,N/A,,Clear,200,2012-11-26 20:35:00
3:55 PM,62.6,23.0,22,30.15,10.0,SE,4.6,-,N/A,,Clear,140,2012-11-26 20:55:00
4:15 PM,62.6,24.8,24,30.16,10.0,SSE,4.6,-,N/A,,Clear,160,2012-11-26 21:15:00
4:35 PM,60.8,23.0,23,30.15,10.0,South,4.6,-,N/A,,Clear,170,2012-11-26 21:35:00
4:55 PM,59.0,24.8,27,30.16,10.0,South,5.8,-,N/A,,Clear,170,2012-11-26 21:55:00
5:15 PM,57.2,23.0,27,30.15,10.0,South,3.5,-,N/A,,Clear,170,2012-11-26 22:15:00
5:35 PM,55.4,23.0,29,30.16,10.0,Calm,Calm,-,N/A,,Clear,0,2012-11-26 22:35:00
5:55 PM,51.8,26.6,38,30.16,10.0,Calm,Calm,-,N/A,,Clear,0,2012-11-26 22:55:00
6:15 PM,46.4,28.4,50,30.16,10.0,Calm,Calm,-,N/A,,Clear,0,2012-11-26 23:15:00
6:35 PM,46.4,28.4,50,30.16,10.0,Calm,Calm,-,N/A,,Clear,0,2012-11-26 23:35:00
6:55 PM,46.4,30.2,53,30.17,10.0,Calm,Calm,-,N/A,,Clear,0,2012-11-26 23:55:00
7:15 PM,44.6,30.2,57,30.17,10.0,Calm,Calm,-,N/A,,Clear,0,2012-11-27 00:15:00
7:35 PM,41.0,30.2,65,30.17,10.0,Calm,Calm,-,N/A,,Clear,0,2012-11-27 00:35:00
7:55 PM,41.0,30.2,65,30.17,10.0,Calm,Calm,-,N/A,,Clear,0,2012-11-27 00:55:00
8:15 PM,41.0,32.0,70,30.17,10.0,Calm,Calm,-,N/A,,Clear,0,2012-11-27 01:15:00
8:35 PM,41.0,32.0,70,30.17,10.0,Calm,Calm,-,N/A,,Clear,0,2012-11-27 01:35:00
8:55 PM,39.2,32.0,75,30.17,10.0,Calm,Calm,-,N/A,,Clear,0,2012-11-27 01:55:00
9:15 PM,41.0,32.0,70,30.18,10.0,Calm,Calm,-,N/A,,Clear,0,2012-11-27 02:15:00
9:35 PM,39.2,30.2,70,30.18,10.0,Calm,Calm,-,N/A,,Clear,0,2012-11-27 02:35:00
9:55 PM,37.4,32.0,81,30.17,10.0,Calm,Calm,-,N/A,,Clear,0,2012-11-27 02:55:00
10:15 PM,37.4,30.2,75,30.17,10.0,Calm,Calm,-,N/A,,Clear,0,2012-11-27 03:15:00
10:35 PM,35.6,30.2,81,30.17,10.0,Calm,Calm,-,N/A,,Clear,0,2012-11-27 03:35:00
10:55 PM,37.4,32.0,81,30.18,10.0,Calm,Calm,-,N/A,,Clear,0,2012-11-27 03:55:00
11:15 PM,37.4,32.0,81,30.18,10.0,Calm,Calm,-,N/A,,Clear,0,2012-11-27 04:15:00
11:35 PM,37.4,32.0,81,30.17,10.0,Calm,Calm,-,N/A,,Scattered Clouds,0,2012-11-27 04:35:00
11:55 PM,37.4,32.0,81,30.16,10.0,Calm,Calm,-,N/A,,Scattered Clouds,0,2012-11-27 04:55:00